Regional Weather Roundup
Issued by NWS Midland/Odessa, TX

Skip options and go directly to product.
Home | Oldest Version | Next Version | Current Version | All | Text Only | Save Text | Print | Product List | Glossary On

Skip product version selection by date and time.   
473
ASUS44 KMAF 241801
RWRMAF
MIDLAND AREA WEATHER ROUNDUP
NATIONAL WEATHER SERVICE MIDLAND TX
100 PM CDT FRI JUN 24 2016

...IN SOUTHWEST TEXAS AND SOUTHEAST NEW MEXICO...

CITY           SKY/WX    TMP DP  RH WIND       PRES   REMARKS
ALPINE         SUNNY     87  50  27 NE7       30.19S
ANDREWS        FAIR      90  55  31 SE16      30.09S
ARTESIA        SUNNY     88  59  37 SE15      30.08F
BIG SPRING     SUNNY     84  58  41 S13G20    30.09F
CARLSBAD       SUNNY     90  54  29 SE14G20   30.05F
DRYDEN           N/A     90  62  39 E15G26    30.03F
FORT STOCKTON  SUNNY     89  56  32 SE14G22   30.06F
GUAD PASS      SUNNY     85  51  31 E17       30.22S
HOBBS          SUNNY     90  50  25 SE13G22   30.10F
MARFA          SUNNY    N/A N/A N/A E8        30.17F
MIDLAND AIRPK  SUNNY     90  55  30 SE14G21   30.08F
MIDLAND INTL   SUNNY     91  55  29 SE15G25   30.07F
ODESSA         SUNNY     90  56  31 S16G25    30.08F
PECOS          SUNNY     95  54  25 SE16G25   30.02F
PRESIDIO       FAIR      95  53  24 E6        30.00F
SEMINOLE       SUNNY     92  50  24 S16       30.09F
SNYDER           N/A     86  67  52 S10       30.08F
WINK           SUNNY     91  56  30 SE18G25   30.03F
$$
...OTHER STATIONS IN TEXAS...

CITY           SKY/WX    TMP DP  RH WIND       PRES   REMARKS
ABILENE        MOSUNNY   89  68  49 S13       30.06F
AMARILLO       SUNNY     90  60  36 S22       30.06F
AUSTIN         CLOUDY    87  72  60 SE12      30.06F
BROWNSVILLE    SUNNY     92  69  47 SE16G24   30.01F
CORPUS CHRISTI PTSUNNY   90  76  63 SE15      30.02F HX 101
DALLAS FTW     MOSUNNY   92  67  43 S14       30.03F
DEL RIO        MOSUNNY   88  68  51 E13G21    30.01F
EL PASO        MOSUNNY   94  48  20 SE10      30.06F
HOUSTON INT    MOSUNNY   90  72  55 SE7       30.06F
LUBBOCK        PTSUNNY   90  57  32 S15G22    30.07F
SAN ANGELO     MOSUNNY   90  64  42 S9        30.05F
SAN ANTONIO    PTSUNNY   88  71  57 SE14G21   30.06F
WACO           MOSUNNY   92  69  47 S14       30.06F
WICHITA FALLS  NOT AVBL
$$
...OTHER LOCATIONS IN NEW MEXICO...

CITY           SKY/WX    TMP DP  RH WIND       PRES   REMARKS
ALAMAGORDO     SUNNY     90  48  24 SW6       30.10F
ALBUQUERQUE    CLOUDY    86  50  28 CALM      30.17F
CANNON AFB     NOT AVBL
CLOVIS         SUNNY     90  57  33 S16       30.10F
HOLLOMAN AFB   NOT AVBL
ROSWELL        SUNNY     89  57  33 SE12G22   30.07F
RUIDOSO          N/A     82  46  28 E9        30.30F
SANTA FE       SUNNY     85  45  24 W9        30.23F
TRUTH OR CONSE SUNNY     91  45  20 NE5       30.12F
TUCUMCARI      SUNNY     93  50  23 SW13G23   30.04F
$$

USA.gov is the U.S. government's official web portal to all federal, state and local government web resources and services.